カタログに戻る

STARLINK-3757

運用中通信VLEO
NORAD 52539·PAYLOAD·🇺🇸 United States

打ち上げ May 13, 2022 から Vandenberg Space Force Base

Loading…

次のパス (今後24時間)

TLE

最新Source: CelesTrak SupGP

元期: Sep 15, 2026, 01:14 UTC

1 52539C 22051G   26258.05187500 -.00001923  00000+0 -58326-4 0  2585
2 52539  53.1589 347.3576 0001285  82.5072  45.7329 15.33560323    14

AllMySatでSTARLINK-3757をリアルタイム追跡

Download on the App Store